Weather History for Las Vegas, NV

Change the Weather History Date:

Tuesday, August 12, 2014

  Actual Average Record
Temperature  
Mean Temperature 88 °F 91 °F  
Max Temperature 96 °F 103 °F 115 °F (1937)
Min Temperature 79 °F 80 °F 60 °F (1949)
Degree Days  
Heating Degree Days 0 0  
Month to date heating degree days 0 0  
Since 1 June heating degree days 0 1  
Since 1 July heating degree days 0 0  
Cooling Degree Days 23 26  
Month to date cooling degree days 280 323  
Year to date cooling degree days 2577 2377  
Since 1 June cooling degree days 1919 1827  
Growing Degree Days 38 (Base 50)    
Moisture  
Dew Point 58 °F    
Average Humidity 37    
Maximum Humidity 48    
Minimum Humidity 26    
Precipitation  
Precipitation 0.00 in 0.01 in 1.56 in (1979)
Month to date precipitation 0.35 0.14  
Year to date precipitation 0.87 2.62  
Snow  
Snow 0.00 in 0.00 in 0.00 in ()
Month to date snowfall 0.0 0.0  
Since 1 June snowfall 0.0 0.0  
Since 1 July snowfall 0.0 0.0  
Snow Depth 0.00 in    
Sea Level Pressure  
Sea Level Pressure 29.87 in    
Wind  
Wind Speed 7 mph (SSW)    
Max Wind Speed 22 mph    
Max Gust Speed 29 mph    
Visibility 10 miles    
Events      
T = Trace of Precipitation, MM = Missing Value Source: NWS Daily Summary

Daily Weather History Graph

Daily Weather History Graph

Search for Another Location

Airport:

Trip Planner

Search our weather history database for the weather conditions in past years. The results will help you decide how hot, cold, wet, or windy it might be!

Date:

Astronomy

Aug. 12, 2014 Rise Set
Actual Time 5:56 AM PDT 7:34 PM PDT
Civil Twilight 5:29 AM PDT 8:01 PM PDT
Nautical Twilight 4:56 AM PDT 8:34 PM PDT
Astronomical Twilight 4:21 AM PDT 9:09 PM PDT
Moon 8:51 PM PDT (8/12) 8:13 AM PDT (8/12)
Length of Visible Light 14h 32m
Length of Day
13h 37m
Waning Gibbous, 94% of the Moon is Illuminated
Aug 12
Waning Gibbous
Aug 17
Last Quarter
Aug 25
New
Sep 2
First Quarter
Sep 8
Full

Hourly Weather History & Observations

Time (PDT) Temp. Heat Index Dew Point Humidity Pressure Visibility Wind Dir Wind Speed Gust Speed Precip Events Conditions
12:56 AM 82.9 °F 82.1 °F 55.9 °F 39% 29.92 in 10.0 mi NW 4.6 mph - N/A   Overcast
1:56 AM 82.0 °F 81.7 °F 57.0 °F 42% 29.91 in 10.0 mi WNW 4.6 mph - N/A   Mostly Cloudy
2:56 AM 81.0 °F 81.0 °F 57.0 °F 44% 29.90 in 10.0 mi SW 4.6 mph - N/A   Partly Cloudy
3:56 AM 81.0 °F 81.1 °F 57.9 °F 45% 29.90 in 10.0 mi South 6.9 mph - N/A   Mostly Cloudy
4:56 AM 80.1 °F 80.6 °F 57.9 °F 47% 29.89 in 10.0 mi South 6.9 mph - N/A   Mostly Cloudy
5:56 AM 80.1 °F 80.4 °F 57.0 °F 45% 29.91 in 10.0 mi SSW 5.8 mph - N/A   Scattered Clouds
6:33 AM 80.1 °F 80.4 °F 57.0 °F 45% 30.00 in 10.0 mi SSW 6.9 mph - N/A   Mostly Cloudy
6:56 AM 82.0 °F 81.7 °F 57.0 °F 42% 29.92 in 10.0 mi SSW 4.6 mph - N/A   Mostly Cloudy
7:56 AM 82.9 °F 82.1 °F 55.9 °F 39% 29.93 in 10.0 mi Calm Calm - N/A   Mostly Cloudy
10:56 AM 91.0 °F 88.9 °F 55.0 °F 29% 29.92 in 10.0 mi Variable 4.6 mph - N/A   Scattered Clouds
11:56 AM 91.9 °F 90.3 °F 55.9 °F 30% 29.91 in 10.0 mi Variable 3.5 mph - N/A   Mostly Cloudy
12:56 PM 91.4 °F 89.4 °F 55.4 °F 29% 29.98 in 10.0 mi South 8.1 mph - N/A   Mostly Cloudy
1:56 PM 95.0 °F 93.4 °F 55.9 °F 27% 29.85 in 10.0 mi Variable 3.5 mph - N/A   Mostly Cloudy
2:56 PM 95.0 °F 93.4 °F 55.9 °F 27% 29.82 in 10.0 mi SSE 10.4 mph - N/A   Mostly Cloudy
3:56 PM 93.9 °F 92.2 °F 55.9 °F 28% 29.80 in 10.0 mi SSW 10.4 mph - N/A   Mostly Cloudy
4:56 PM 93.9 °F 92.2 °F 55.9 °F 28% 29.79 in 10.0 mi Calm Calm - N/A   Mostly Cloudy
5:56 PM 91.9 °F 91.2 °F 59.0 °F 33% 29.78 in 10.0 mi South 16.1 mph - N/A   Mostly Cloudy
6:56 PM 89.1 °F 89.0 °F 61.0 °F 39% 29.80 in 10.0 mi South 13.8 mph - N/A   Mostly Cloudy
7:56 PM 86.0 °F 86.1 °F 60.8 °F 43% 29.80 in 10.0 mi South 12.7 mph - N/A   Mostly Cloudy
8:56 PM 87.1 °F 86.7 °F 60.1 °F 40% 29.82 in 10.0 mi SSW 11.5 mph - N/A   Mostly Cloudy
9:56 PM 87.1 °F 86.5 °F 59.0 °F 39% 29.84 in 10.0 mi South 13.8 mph - N/A   Mostly Cloudy
10:56 PM 84.9 °F 84.8 °F 60.1 °F 43% 29.84 in 10.0 mi South 10.4 mph - N/A   Overcast
11:56 PM 84.0 °F 84.9 °F 63.0 °F 49% 29.84 in 10.0 mi SSW 9.2 mph - N/A   Overcast